Buffalo, NY
on Sunday, December 10, 2017

Sunday
       
Previous Day Next Day
Daily Summary
 ActualAverageRecord
Temperature
Mean Temperature °F °C 32°F 0°C  
Max Temperature 29°F -2°C 38°F 3°C 62°F 16°C (1911)
Min Temperature 27°F -3°C 26°F -3°C 2°F -16°C (1876)
Degree Days
Heating Degree Days 37 33  
Month to date heating degree days 296 317  
Since 1 July heating degree days 1411 1650  
Cooling Degree Days 0 0  
Month to date cooling degree days 0 0  
Year to date cooling degree days 603 544  
Moisture
Dew Point 23°F -5°C   
Average Humidity 75    
Maximum Humidity 92    
Minimum Humidity 58    
Precipitation
Precipitation 0.05 in / 1.27 cm 0.13 in / 3.30 cm 1.31 in / 3.33 cm (1878)
Month to date precipitation 0.86 1.25  
Year to date precipitation 46.41 37.84  
Snow
Snow 2.10 in / 5.33 cm 0.80 in / 2.03 cm 33.90 in / 86.11 cm (1995)
Month to date snowfall 6.4 6.8  
Since 1 July snowfall 6.6 15.6  
Snow Depth 1.00 in / 2.54 cm   
Wind
Wind Speed 13 mph / 20 km/h   
Max Wind Speed 24 mph / 39 km/h   
Max Gust Speed 36 mph / 58 km/h   
Visibility 5 miles / 8 kilometers   
Events Snow , Thunderstorm   

Key: T is trace of precipitation, MM is missing value
Source: NWS Daily Summary
Time(EST)TemperatureDew PointHumidity Pressure Visibility Wind DirectionWind SpeedGust SpeedPrecipitationEvents Conditions
12:01 AM 28.9°F -1.7°C 24.1°F -4.4°C 82% 29.75 in / 1007.3 hPa 9.0 miles / 14.5 kilometers WSW 8.1 mph / 13.0 km/h - 0.00 in / 0.0 cm Snow Light Snow
12:25 AM 28.9°F -1.7°C 25.0°F -3.9°C 85% 29.76 in / 1007.7 hPa 7.0 miles / 11.3 kilometers WSW 5.8 mph / 9.3 km/h - 0.00 in / 0.0 cm Snow Light Snow
12:54 AM 28.9°F -1.7°C 24.1°F -4.4°C 82% 29.78 in / 1008.4 hPa 8.0 miles / 12.9 kilometers West 6.9 mph / 11.1 km/h - 0.00 in / 0.0 cm Snow Light Snow
1:54 AM 28.9°F -1.7°C 24.1°F -4.4°C 82% 29.79 in / 1008.7 hPa 3.0 miles / 4.8 kilometers West 8.1 mph / 13.0 km/h - 0.00 in / 0.0 cm Snow Light Snow
2:54 AM 28.9°F -1.7°C 24.1°F -4.4°C 82% 29.79 in / 1008.8 hPa 8.0 miles / 12.9 kilometers WSW 8.1 mph / 13.0 km/h - 0.00 in / 0.0 cm Snow Light Snow
3:54 AM 28.0°F -2.2°C 24.1°F -4.4°C 85% 29.80 in / 1009.1 hPa 6.0 miles / 9.7 kilometers West 10.4 mph / 16.7 km/h - 0.00 in / 0.0 cm Snow Light Snow
4:54 AM 28.0°F -2.2°C 25.0°F -3.9°C 88% 29.81 in / 1009.5 hPa 3.0 miles / 4.8 kilometers WNW 11.5 mph / 18.5 km/h - 0.00 in / 0.0 cm Snow Light Snow
5:47 AM 28.0°F -2.2°C 25.0°F -3.9°C 88% 29.80 in / 1009.0 hPa 6.0 miles / 9.7 kilometers West 9.2 mph / 14.8 km/h - 0.01 in / 0.3 cm Snow Light Snow
5:54 AM 28.0°F -2.2°C 24.1°F -4.4°C 85% 29.84 in / 1010.3 hPa 6.0 miles / 9.7 kilometers West 11.5 mph / 18.5 km/h - 0.01 in / 0.3 cm Snow Light Snow
6:54 AM 28.0°F -2.2°C 21.9°F -5.6°C 78% 29.85 in / 1010.8 hPa 10.0 miles / 16.1 kilometers West 10.4 mph / 16.7 km/h - 0.00 in / 0.0 cm   Overcast
7:54 AM 27.0°F -2.8°C 19.9°F -6.7°C 75% 29.88 in / 1011.6 hPa 10.0 miles / 16.1 kilometers West 11.5 mph / 18.5 km/h 21.9 mph / 35.2 km/h N/A   Overcast
8:54 AM 27.0°F -2.8°C 18.0°F -7.8°C 69% 29.89 in / 1012.1 hPa 10.0 miles / 16.1 kilometers West 19.6 mph / 31.5 km/h 31.1 mph / 50.0 km/h N/A   Overcast
9:54 AM 28.0°F -2.2°C 16.0°F -8.9°C 61% 29.90 in / 1012.3 hPa 10.0 miles / 16.1 kilometers West 18.4 mph / 29.6 km/h 25.3 mph / 40.7 km/h N/A   Overcast
10:54 AM 28.0°F -2.2°C 18.0°F -7.8°C 66% 29.89 in / 1012.1 hPa 9.0 miles / 14.5 kilometers West 15.0 mph / 24.1 km/h 25.3 mph / 40.7 km/h 0.00 in / 0.0 cm Snow Light Snow
11:54 AM 28.0°F -2.2°C 19.0°F -7.2°C 69% 29.86 in / 1010.9 hPa 9.0 miles / 14.5 kilometers West 15.0 mph / 24.1 km/h 27.6 mph / 44.4 km/h 0.00 in / 0.0 cm Snow Light Snow
12:54 PM 28.9°F -1.7°C 21.0°F -6.1°C 72% 29.85 in / 1010.7 hPa 5.0 miles / 8.0 kilometers West 15.0 mph / 24.1 km/h - 0.00 in / 0.0 cm Snow Light Snow
1:41 PM 28.0°F -2.2°C 21.9°F -5.6°C 78% 29.81 in / 1009.4 hPa 2.5 miles / 4.0 kilometers West 16.1 mph / 25.9 km/h - 0.00 in / 0.0 cm Snow Light Snow
1:54 PM 28.0°F -2.2°C 21.9°F -5.6°C 78% 29.83 in / 1010.2 hPa 2.0 miles / 3.2 kilometers West 18.4 mph / 29.6 km/h 25.3 mph / 40.7 km/h 0.00 in / 0.0 cm Snow Light Snow
2:04 PM 28.0°F -2.2°C 23.0°F -5.0°C 81% 29.81 in / 1009.4 hPa 1.0 miles / 1.6 kilometers West 13.8 mph / 22.2 km/h - 0.00 in / 0.0 cm Snow , Thunderstorm Light Snow
2:19 PM 28.0°F -2.2°C 24.1°F -4.4°C 85% 29.81 in / 1009.4 hPa 0.8 miles / 1.2 kilometers West 15.0 mph / 24.1 km/h - 0.00 in / 0.0 cm Snow Light Snow
2:33 PM 28.0°F -2.2°C 24.1°F -4.4°C 85% 29.81 in / 1009.4 hPa 0.8 miles / 1.2 kilometers West 11.5 mph / 18.5 km/h 20.7 mph / 33.3 km/h 0.00 in / 0.0 cm Snow , Thunderstorm Light Snow
2:46 PM 27.0°F -2.8°C 25.0°F -3.9°C 92% 29.82 in / 1009.7 hPa 1.0 miles / 1.6 kilometers West 11.5 mph / 18.5 km/h - 0.00 in / 0.0 cm Snow Light Snow
2:54 PM 27.0°F -2.8°C 25.0°F -3.9°C 92% 29.85 in / 1010.6 hPa 2.0 miles / 3.2 kilometers West 12.7 mph / 20.4 km/h - 0.00 in / 0.0 cm Snow Light Snow
3:04 PM 28.0°F -2.2°C 24.1°F -4.4°C 85% 29.82 in / 1009.7 hPa 1.0 miles / 1.6 kilometers WSW 15.0 mph / 24.1 km/h - 0.00 in / 0.0 cm Snow Light Snow
3:11 PM 28.0°F -2.2°C 25.0°F -3.9°C 88% 29.82 in / 1009.7 hPa 0.5 miles / 0.8 kilometers WSW 11.5 mph / 18.5 km/h - 0.00 in / 0.0 cm Snow Snow
3:29 PM 28.0°F -2.2°C 25.0°F -3.9°C 88% 29.82 in / 1009.7 hPa 1.0 miles / 1.6 kilometers West 12.7 mph / 20.4 km/h - 0.01 in / 0.3 cm Snow Light Snow
3:41 PM 27.0°F -2.8°C 25.0°F -3.9°C 92% 29.82 in / 1009.7 hPa 0.5 miles / 0.8 kilometers West 16.1 mph / 25.9 km/h - 0.01 in / 0.3 cm Snow Snow
3:47 PM 27.0°F -2.8°C 25.0°F -3.9°C 92% 29.82 in / 1009.7 hPa 0.5 miles / 0.8 kilometers West 11.5 mph / 18.5 km/h - 0.01 in / 0.3 cm Snow Snow
3:54 PM 27.0°F -2.8°C 25.0°F -3.9°C 92% 29.86 in / 1010.9 hPa 0.5 miles / 0.8 kilometers West 15.0 mph / 24.1 km/h 21.9 mph / 35.2 km/h 0.02 in / 0.5 cm Snow Snow
4:11 PM 28.0°F -2.2°C 25.0°F -3.9°C 88% 29.83 in / 1010.0 hPa 3.0 miles / 4.8 kilometers West 15.0 mph / 24.1 km/h - 0.00 in / 0.0 cm Snow Light Snow
4:25 PM 28.0°F -2.2°C 21.9°F -5.6°C 78% 29.84 in / 1010.4 hPa 7.0 miles / 11.3 kilometers West 15.0 mph / 24.1 km/h - 0.00 in / 0.0 cm Snow Light Snow
4:54 PM 28.9°F -1.7°C 21.0°F -6.1°C 72% 29.87 in / 1011.3 hPa 5.0 miles / 8.0 kilometers West 18.4 mph / 29.6 km/h 25.3 mph / 40.7 km/h 0.00 in / 0.0 cm Snow Light Snow
5:14 PM 28.0°F -2.2°C 21.0°F -6.1°C 75% 29.84 in / 1010.4 hPa 1.8 miles / 2.8 kilometers West 15.0 mph / 24.1 km/h 23.0 mph / 37.0 km/h 0.00 in / 0.0 cm Snow Light Snow
5:54 PM 27.0°F -2.8°C 23.0°F -5.0°C 85% 29.89 in / 1012.1 hPa 2.0 miles / 3.2 kilometers West 13.8 mph / 22.2 km/h - 0.00 in / 0.0 cm Snow Light Snow
6:54 PM 27.0°F -2.8°C 24.1°F -4.4°C 89% 29.90 in / 1012.3 hPa 2.0 miles / 3.2 kilometers West 11.5 mph / 18.5 km/h - 0.01 in / 0.3 cm Snow Light Snow
7:04 PM 27.0°F -2.8°C 24.1°F -4.4°C 89% 29.86 in / 1011.1 hPa 3.0 miles / 4.8 kilometers WSW 10.4 mph / 16.7 km/h - 0.00 in / 0.0 cm Snow Light Snow
7:31 PM 28.0°F -2.2°C 21.9°F -5.6°C 78% 29.87 in / 1011.4 hPa 9.0 miles / 14.5 kilometers WSW 9.2 mph / 14.8 km/h - 0.00 in / 0.0 cm Snow Light Snow
7:54 PM 28.9°F -1.7°C 19.9°F -6.7°C 69% 29.90 in / 1012.4 hPa 9.0 miles / 14.5 kilometers WSW 11.5 mph / 18.5 km/h 18.4 mph / 29.6 km/h 0.00 in / 0.0 cm Snow Light Snow
8:54 PM 28.9°F -1.7°C 19.9°F -6.7°C 69% 29.90 in / 1012.5 hPa 9.0 miles / 14.5 kilometers WSW 12.7 mph / 20.4 km/h - 0.00 in / 0.0 cm Snow Light Snow
9:54 PM 28.0°F -2.2°C 21.0°F -6.1°C 75% 29.91 in / 1012.7 hPa 9.0 miles / 14.5 kilometers WSW 9.2 mph / 14.8 km/h - 0.00 in / 0.0 cm Snow Light Snow
10:54 PM 28.0°F -2.2°C 21.0°F -6.1°C 75% 29.91 in / 1012.6 hPa 9.0 miles / 14.5 kilometers WSW 13.8 mph / 22.2 km/h - 0.00 in / 0.0 cm Snow Light Snow
11:54 PM 28.0°F -2.2°C 21.0°F -6.1°C 75% 29.90 in / 1012.5 hPa 9.0 miles / 14.5 kilometers SW 6.9 mph / 11.1 km/h - 0.00 in / 0.0 cm Snow Light Snow